EW3591 Weather Reports


Display with metric or nautical units.
time (UTC)temp
F
wind
direction
speed
MPH
gust
MPH
rain 1hr
in
rain 24hr
in
rain mn
in
humidity
%
barometer
mb
20210925010652 57 224 1.0 3.0 0.00 0.10 0.01 80 1015.8
20210925010452 57 226 1.0 3.0 0.00 0.10 0.01 80 1015.8
20210925010251 57 208 1.0 3.0 0.00 0.10 0.01 80 1015.8
20210925010051 57 194 1.0 3.0 0.00 0.10 0.01 80 1015.7
20210925005851 57 216 1.0 3.0 0.00 0.11 0.01 80 1015.8
20210925005650 57 228 1.0 3.0 0.00 0.11 0.01 80 1015.7
20210925005450 57 238 1.0 3.0 0.00 0.11 0.01 80 1015.7
20210925005250 57 228 1.0 3.0 0.00 0.11 0.01 80 1015.7
20210925005049 57 210 1.0 3.0 0.00 0.11 0.01 80 1015.7
20210925004849 57 205 1.0 3.0 0.00 0.11 0.01 80 1015.7
20210925004649 57 185 0.0 3.0 0.00 0.11 0.01 80 1015.6
20210925004448 57 193 1.0 3.0 0.00 0.11 0.01 79 1015.6
20210925004248 57 228 1.0 3.0 0.00 0.11 0.01 79 1015.7
20210925004048 57 215 1.0 3.0 0.00 0.11 0.01 79 1015.6
20210925003847 57 217 1.0 2.0 0.00 0.11 0.01 79 1015.5
20210925003647 57 222 1.0 2.0 0.00 0.11 0.01 78 1015.5
20210925003446 57 222 0.0 2.0 0.00 0.11 0.01 78 1015.5
20210925003246 57 222 0.0 2.0 0.00 0.11 0.01 78 1015.4
20210925003046 57 223 0.0 2.0 0.00 0.11 0.01 78 1015.4
20210925002845 57 223 0.0 2.0 0.00 0.11 0.01 78 1015.4
20210925002645 57 223 0.0 2.0 0.00 0.11 0.01 77 1015.4
20210925002445 58 0 0.0 2.0 0.00 0.11 0.01 77 1015.4
20210925002244 58 221 0.0 2.0 0.00 0.11 0.01 77 1015.4
20210925002044 58 212 0.0 2.0 0.00 0.11 0.01 76 1015.4
20210925001844 58 208 0.0 2.0 0.00 0.11 0.01 76 1015.3
20210925001643 58 206 0.0 2.0 0.00 0.11 0.01 76 1015.3
20210925001443 58 206 0.0 2.0 0.00 0.11 0.01 76 1015.3
20210925001243 58 197 0.0 2.0 0.00 0.11 0.01 76 1015.3
20210925001042 58 211 0.0 2.0 0.00 0.11 0.01 75 1015.3
20210925000842 58 210 0.0 2.0 0.00 0.11 0.01 75 1015.3
20210925000641 58 207 0.0 2.0 0.00 0.11 0.01 75 1015.2
20210925000443 58 205 0.0 1.0 0.00 0.11 0.01 74 1015.2
20210925000241 58 204 0.0 1.0 0.00 0.11 0.01 74 1015.2
20210925000041 58 0 0.0 1.0 0.00 0.11 0.01 73 1015.2
20210924235640 59 205 0.0 1.0 0.00 0.11 0.01 71 1015.2
20210924235440 59 205 0.0 1.0 0.00 0.11 0.01 71 1015.2
20210924235239 59 0 0.0 1.0 0.00 0.11 0.01 70 1015.1
20210924235039 59 0 0.0 1.0 0.00 0.11 0.01 69 1015.1
20210924234839 59 204 0.0 1.0 0.00 0.11 0.01 68 1015.0
20210924234638 59 205 0.0 1.0 0.00 0.11 0.01 68 1015.0
20210924234438 60 205 0.0 1.0 0.00 0.11 0.01 67 1015.1
20210924234238 60 205 0.0 1.0 0.00 0.11 0.01 66 1015.0
20210924234037 60 205 0.0 1.0 0.00 0.11 0.01 65 1015.0
20210924233837 60 205 0.0 2.0 0.00 0.11 0.01 64 1015.0
20210924233637 60 205 0.0 3.0 0.00 0.11 0.01 64 1015.0
20210924233436 60 203 0.0 3.0 0.00 0.11 0.01 63 1015.0
20210924233236 60 208 1.0 3.0 0.00 0.11 0.01 63 1015.0
20210924233036 61 220 1.0 3.0 0.00 0.11 0.01 63 1014.8
20210924232835 61 220 1.0 3.0 0.00 0.11 0.01 62 1014.8
20210924232635 61 214 0.0 2.0 0.00 0.11 0.01 62 1014.8
20210924232435 61 214 0.0 2.0 0.00 0.11 0.01 62 1014.8
20210924232234 61 210 1.0 2.0 0.00 0.11 0.01 61 1014.7
20210924232034 61 196 1.0 3.0 0.00 0.11 0.01 61 1014.7
20210924231834 62 215 0.0 3.0 0.00 0.11 0.01 60 1014.7
20210924231633 62 215 0.0 3.0 0.00 0.11 0.01 60 1014.6
20210924231433 62 217 0.0 3.0 0.00 0.11 0.01 60 1014.6
20210924231233 62 221 1.0 3.0 0.00 0.11 0.01 59 1014.5
20210924231032 62 222 1.0 3.0 0.00 0.11 0.01 59 1014.6
20210924230832 62 222 0.0 3.0 0.00 0.11 0.01 58 1014.6
20210924230632 62 222 0.0 3.0 0.00 0.11 0.01 58 1014.6
20210924230431 63 207 1.0 3.0 0.00 0.11 0.01 57 1014.5
20210924230231 63 190 1.0 3.0 0.00 0.11 0.01 56 1014.5
20210924230031 63 196 0.0 1.0 0.00 0.11 0.01 56 1014.5
20210924225830 63 199 0.0 1.0 0.00 0.11 0.01 56 1014.5
20210924225630 63 199 0.0 3.0 0.00 0.11 0.01 55 1014.5
20210924225430 64 196 0.0 3.0 0.00 0.11 0.01 55 1014.5
20210924225029 64 175 1.0 5.0 0.00 0.11 0.01 54 1014.5
20210924224829 64 223 1.0 5.0 0.00 0.11 0.01 54 1014.4
20210924224628 64 223 1.0 7.0 0.00 0.11 0.01 54 1014.5
20210924224428 64 216 1.0 7.0 0.00 0.11 0.01 53 1014.4
20210924224228 64 249 1.0 7.0 0.00 0.11 0.01 53 1014.4
20210924224027 64 231 2.0 7.0 0.00 0.11 0.01 53 1014.4
20210924223827 65 225 2.0 7.0 0.00 0.11 0.01 52 1014.4
20210924223627 65 188 2.0 7.0 0.00 0.11 0.01 52 1014.4
20210924223426 65 220 2.0 7.0 0.00 0.11 0.01 52 1014.5
20210924223226 65 227 2.0 9.0 0.00 0.11 0.01 52 1014.4
20210924223026 65 209 3.0 9.0 0.00 0.11 0.01 51 1014.4
20210924222825 65 201 2.0 9.0 0.00 0.11 0.01 51 1014.4
20210924222625 65 185 2.0 9.0 0.00 0.11 0.01 52 1014.4
20210924222424 66 201 2.0 9.0 0.00 0.11 0.01 51 1014.3
20210924222224 66 220 3.0 8.0 0.00 0.11 0.01 51 1014.3
20210924222024 66 228 4.0 8.0 0.00 0.11 0.01 51 1014.3
20210924221824 66 189 1.0 8.0 0.00 0.11 0.01 51 1014.3
20210924221623 66 164 2.0 9.0 0.00 0.11 0.01 51 1014.3
20210924221423 66 137 1.0 9.0 0.00 0.11 0.01 51 1014.3
20210924221223 66 205 2.0 10.0 0.00 0.11 0.01 51 1014.3
20210924221022 66 189 3.0 10.0 0.00 0.11 0.01 50 1014.3
20210924220822 66 221 3.0 11.0 0.00 0.11 0.01 49 1014.3
20210924220621 66 204 4.0 11.0 0.00 0.11 0.01 49 1014.3
20210924220421 67 198 3.0 11.0 0.00 0.11 0.01 49 1014.3
20210924220221 67 217 5.0 11.0 0.00 0.11 0.01 48 1014.2
20210924220021 67 226 4.0 11.0 0.00 0.11 0.01 48 1014.3
20210924215820 67 225 4.0 15.0 0.00 0.11 0.01 48 1014.2
20210924215620 67 194 4.0 15.0 0.00 0.11 0.01 49 1014.2
20210924215419 68 212 4.0 15.0 0.00 0.11 0.01 48 1014.2
20210924215219 68 226 5.0 15.0 0.00 0.11 0.01 48 1014.2
20210924215019 68 233 4.0 10.0 0.00 0.11 0.01 47 1014.2
20210924214818 68 154 2.0 8.0 0.00 0.11 0.01 48 1014.2
20210924214618 68 95 3.0 8.0 0.00 0.11 0.01 48 1014.1
20210924214418 69 189 4.0 8.0 0.00 0.11 0.01 48 1014.1
20210924214218 69 187 3.0 8.0 0.00 0.11 0.01 47 1014.2
20210924214017 69 203 3.0 6.0 0.00 0.11 0.01 48 1014.1
20210924213817 69 204 2.0 7.0 0.00 0.11 0.01 47 1014.2
20210924213617 69 171 2.0 8.0 0.00 0.11 0.01 48 1014.2
20210924213416 69 178 2.0 14.0 0.00 0.11 0.01 48 1014.1
20210924213216 69 204 3.0 14.0 0.00 0.11 0.01 47 1014.1
20210924213016 69 192 4.0 14.0 0.00 0.11 0.01 47 1014.1
20210924212815 69 127 4.0 14.0 0.00 0.11 0.01 47 1014.1
20210924212615 69 157 3.0 15.0 0.00 0.11 0.01 47 1014.2
20210924212414 69 193 2.0 15.0 0.00 0.11 0.01 48 1014.1
20210924212214 68 210 3.0 15.0 0.00 0.11 0.01 48 1014.1
20210924212014 68 225 6.0 15.0 0.00 0.11 0.01 48 1014.1
20210924211813 69 217 6.0 15.0 0.00 0.11 0.01 47 1014.1
20210924211613 69 181 5.0 12.0 0.00 0.11 0.01 48 1014.1
20210924211413 69 190 5.0 14.0 0.00 0.11 0.01 47 1014.0
20210924211212 69 186 4.0 14.0 0.00 0.11 0.01 47 1014.1
20210924211012 69 131 5.0 14.0 0.00 0.11 0.01 47 1014.2
20210924210812 69 165 5.0 14.0 0.00 0.11 0.01 47 1014.2
20210924210611 69 184 4.0 11.0 0.00 0.11 0.01 48 1014.0
20210924210411 69 264 4.0 11.0 0.00 0.11 0.01 48 1014.0
20210924210211 69 259 4.0 11.0 0.00 0.11 0.01 48 1014.0
20210924210010 69 235 5.0 12.0 0.00 0.11 0.01 47 1014.0
20210924205810 69 241 4.0 12.0 0.00 0.11 0.01 48 1014.0
20210924205610 69 233 4.0 13.0 0.00 0.11 0.01 49 1013.9
20210924205409 69 226 5.0 13.0 0.00 0.11 0.01 48 1013.9
20210924205209 69 232 5.0 13.0 0.00 0.11 0.01 47 1013.9
20210924205009 69 244 6.0 16.0 0.00 0.11 0.01 47 1013.8
20210924204808 69 219 5.0 16.0 0.00 0.11 0.01 47 1013.9
20210924204608 69 199 4.0 16.0 0.00 0.11 0.01 47 1013.8
20210924204408 69 193 4.0 16.0 0.00 0.11 0.01 47 1013.9
20210924204207 69 162 3.0 16.0 0.00 0.11 0.01 48 1013.9
20210924204007 69 151 4.0 16.0 0.00 0.11 0.01 48 1013.9
20210924203807 69 203 4.0 16.0 0.00 0.11 0.01 47 1013.9
20210924203607 69 210 3.0 12.0 0.00 0.11 0.01 48 1013.8
20210924203406 69 189 3.0 12.0 0.00 0.11 0.01 48 1013.9
20210924203206 69 199 5.0 13.0 0.00 0.11 0.01 48 1013.8
20210924203006 69 157 6.0 17.0 0.00 0.11 0.01 48 1013.8
20210924202805 69 164 6.0 17.0 0.00 0.11 0.01 48 1013.8
20210924202605 69 202 6.0 17.0 0.00 0.11 0.01 49 1013.9
20210924202404 69 208 7.0 17.0 0.00 0.11 0.01 47 1013.7
20210924202204 69 211 6.0 17.0 0.00 0.11 0.01 48 1013.7
20210924202004 69 220 6.0 18.0 0.00 0.11 0.01 48 1013.7
20210924201803 69 206 6.0 18.0 0.00 0.11 0.01 48 1013.7
20210924201603 69 216 5.0 18.0 0.00 0.11 0.01 49 1013.7
20210924201403 69 213 8.0 18.0 0.00 0.11 0.01 48 1013.6
20210924201202 69 193 6.0 18.0 0.00 0.11 0.01 47 1013.6
20210924201002 69 204 6.0 18.0 0.00 0.11 0.01 48 1013.6
20210924200802 69 199 7.0 18.0 0.00 0.11 0.01 48 1013.6
20210924200601 69 208 8.0 18.0 0.00 0.11 0.01 48 1013.6
20210924200401 70 208 6.0 14.0 0.00 0.11 0.01 48 1013.6
20210924200201 70 180 5.0 14.0 0.00 0.11 0.01 48 1013.5
20210924200000 70 219 5.0 14.0 0.00 0.11 0.01 49 1013.5
20210924195800 70 219 4.0 14.0 0.00 0.11 0.01 50 1013.4
20210924195600 69 104 4.0 11.0 0.00 0.11 0.01 50 1013.4
20210924195359 69 107 3.0 18.0 0.00 0.11 0.01 49 1013.4
20210924195159 69 221 4.0 18.0 0.00 0.11 0.01 50 1013.4
20210924194959 69 212 6.0 18.0 0.00 0.11 0.01 49 1013.4
20210924194758 69 191 7.0 18.0 0.00 0.11 0.01 49 1013.3
20210924194558 69 219 7.0 18.0 0.00 0.11 0.01 49 1013.4
20210924194358 69 193 5.0 14.0 0.00 0.11 0.01 50 1013.3
20210924194157 68 226 6.0 14.0 0.00 0.11 0.01 50 1013.3
20210924193957 68 211 6.0 14.0 0.00 0.11 0.01 49 1013.3
20210924193756 69 189 6.0 18.0 0.00 0.11 0.01 49 1013.3
20210924193556 69 189 5.0 18.0 0.00 0.11 0.01 49 1013.2
20210924193356 68 208 6.0 18.0 0.00 0.11 0.01 50 1013.2
20210924193156 68 204 7.0 18.0 0.00 0.11 0.01 48 1013.2
20210924192955 69 188 6.0 18.0 0.00 0.11 0.01 48 1013.2
20210924192754 69 223 6.0 12.0 0.00 0.11 0.01 49 1013.2
20210924192554 69 209 4.0 14.0 0.00 0.11 0.01 50 1013.2
20210924192354 68 219 5.0 18.0 0.00 0.11 0.01 52 1013.1
20210924192153 68 194 5.0 18.0 0.00 0.11 0.01 51 1013.0
20210924191953 68 204 6.0 21.0 0.00 0.11 0.01 51 1013.0
20210924191753 68 228 7.0 21.0 0.00 0.11 0.01 51 1013.0
20210924191552 68 229 8.0 21.0 0.00 0.11 0.01 50 1013.0
20210924191352 68 219 7.0 21.0 0.00 0.11 0.01 50 1013.1
20210924191152 68 241 6.0 21.0 0.00 0.11 0.01 51 1013.1
20210924190951 68 198 7.0 16.0 0.00 0.11 0.01 50 1013.0
20210924190751 68 203 7.0 13.0 0.00 0.11 0.01 51 1013.1
20210924190551 68 232 6.0 17.0 0.00 0.11 0.01 50 1013.1
20210924190350 68 215 6.0 17.0 0.00 0.11 0.01 50 1013.1
20210924190150 68 201 5.0 17.0 0.00 0.11 0.01 50 1013.1
20210924185950 68 198 6.0 17.0 0.00 0.11 0.01 51 1013.1
20210924185749 68 173 6.0 17.0 0.00 0.11 0.01 51 1013.0
20210924185549 68 193 8.0 17.0 0.00 0.11 0.01 50 1013.0
20210924185349 68 231 5.0 16.0 0.00 0.11 0.01 50 1013.0
20210924185149 68 236 5.0 14.0 0.00 0.11 0.01 52 1013.0
20210924184948 68 208 6.0 14.0 0.00 0.11 0.01 51 1013.0
20210924184748 68 227 6.0 14.0 0.00 0.11 0.01 51 1012.9
20210924184548 68 208 6.0 14.0 0.00 0.11 0.01 52 1012.9
20210924184347 67 229 7.0 17.0 0.00 0.11 0.01 51 1012.9
20210924184147 67 218 7.0 17.0 0.00 0.11 0.01 51 1012.8
20210924183947 67 205 6.0 17.0 0.00 0.11 0.01 51 1012.8
20210924183746 67 206 7.0 17.0 0.00 0.11 0.01 51 1012.9
20210924183546 68 263 6.0 17.0 0.00 0.11 0.01 52 1012.9
20210924183346 67 132 6.0 17.0 0.00 0.11 0.01 52 1012.8
20210924183145 67 193 7.0 17.0 0.00 0.11 0.01 53 1012.8
20210924182945 67 206 7.0 17.0 0.00 0.11 0.01 54 1012.9
20210924182745 67 208 7.0 17.0 0.00 0.11 0.01 53 1012.9
20210924182544 67 195 5.0 18.0 0.00 0.11 0.01 54 1012.9
20210924182344 66 208 5.0 18.0 0.00 0.11 0.01 55 1012.8
20210924182144 66 216 7.0 23.0 0.00 0.11 0.01 55 1012.8
20210924181943 66 190 8.0 23.0 0.00 0.11 0.01 55 1012.9
20210924181543 66 186 7.0 23.0 0.00 0.11 0.01 56 1012.9
20210924181342 66 209 8.0 23.0 0.00 0.11 0.01 54 1012.9
20210924181142 66 230 7.0 33.0 0.00 0.11 0.01 54 1012.9
20210924180942 66 192 7.0 33.0 0.00 0.11 0.01 54 1012.8
20210924180741 66 172 6.0 33.0 0.00 0.11 0.01 55 1012.9
20210924180541 66 178 8.0 33.0 0.00 0.11 0.01 55 1012.8
20210924180340 66 193 9.0 33.0 0.00 0.11 0.01 54 1012.9
20210924180140 67 213 6.0 19.0 0.00 0.11 0.01 53 1012.9
20210924175940 67 217 5.0 19.0 0.00 0.11 0.01 56 1013.0
20210924175739 66 172 5.0 12.0 0.00 0.11 0.01 56 1012.9
20210924175539 66 138 5.0 15.0 0.00 0.11 0.01 56 1012.9
20210924175339 66 172 5.0 19.0 0.00 0.11 0.01 57 1012.9
20210924175138 66 166 4.0 19.0 0.00 0.11 0.01 56 1012.9
20210924174938 66 209 8.0 19.0 0.00 0.11 0.01 56 1012.8
20210924174738 66 222 9.0 20.0 0.00 0.11 0.01 54 1012.9
20210924174537 66 216 7.0 20.0 0.00 0.11 0.01 56 1012.8
20210924174337 66 195 7.0 20.0 0.00 0.11 0.01 56 1012.9
20210924174137 66 175 7.0 20.0 0.00 0.11 0.01 56 1012.7
20210924173736 66 197 6.0 19.0 0.00 0.11 0.01 56 1012.8
20210924173536 66 227 5.0 19.0 0.00 0.11 0.01 57 1012.7
20210924173135 66 190 7.0 16.0 0.00 0.11 0.01 56 1012.6
20210924172935 66 197 6.0 16.0 0.00 0.11 0.01 56 1012.7
20210924172734 65 154 3.0 16.0 0.00 0.11 0.01 57 1012.6
20210924172334 65 186 6.0 16.0 0.00 0.11 0.01 57 1012.7
20210924172133 65 201 7.0 16.0 0.00 0.11 0.01 56 1012.7
20210924171933 65 194 7.0 15.0 0.00 0.11 0.01 55 1012.7
20210924171733 65 226 7.0 15.0 0.00 0.11 0.01 55 1012.8
20210924171532 65 213 7.0 15.0 0.00 0.11 0.01 54 1012.8
20210924171332 65 209 7.0 15.0 0.00 0.11 0.01 55 1012.7
20210924171132 65 223 5.0 14.0 0.00 0.11 0.01 55 1012.7
20210924170931 65 240 5.0 20.0 0.00 0.11 0.01 57 1012.8
20210924170731 64 221 7.0 20.0 0.00 0.11 0.01 56 1012.8
20210924170530 64 228 6.0 20.0 0.00 0.11 0.01 55 1012.9
20210924165930 64 198 6.0 17.0 0.00 0.11 0.01 56 1012.8
20210924165729 64 218 6.0 19.0 0.00 0.11 0.01 56 1012.7
20210924165529 63 187 6.0 24.0 0.00 0.11 0.01 54 1012.8
20210924165328 63 223 7.0 26.0 0.00 0.11 0.01 54 1012.6
20210924165128 63 231 9.0 26.0 0.00 0.11 0.01 52 1012.7
20210924164928 64 236 9.0 26.0 0.00 0.11 0.01 52 1012.8
20210924164727 64 225 9.0 26.0 0.00 0.11 0.01 52 1012.7
20210924164526 64 232 7.0 18.0 0.00 0.11 0.01 52 1012.7
20210924164326 64 231 7.0 18.0 0.00 0.11 0.01 53 1012.7
20210924164126 64 209 8.0 18.0 0.00 0.11 0.01 53 1012.7
20210924163925 65 196 8.0 16.0 0.00 0.11 0.01 54 1012.8
20210924163725 65 186 6.0 14.0 0.00 0.11 0.01 55 1012.8
20210924163525 65 209 5.0 14.0 0.00 0.11 0.01 56 1012.6
20210924163324 65 212 7.0 14.0 0.00 0.11 0.01 56 1012.6
20210924163124 65 207 5.0 14.0 0.00 0.11 0.01 56 1012.7
20210924162924 64 215 4.0 13.0 0.00 0.11 0.01 58 1012.7
20210924162723 64 171 5.0 16.0 0.00 0.11 0.01 57 1012.7
20210924162523 64 185 6.0 17.0 0.00 0.11 0.01 57 1012.6
20210924162323 64 202 6.0 17.0 0.00 0.11 0.01 59 1012.7
20210924162122 63 206 6.0 17.0 0.00 0.11 0.01 58 1012.7
20210924161922 63 197 7.0 17.0 0.00 0.11 0.01 59 1012.6
20210924161721 63 188 6.0 16.0 0.00 0.11 0.01 54 1012.6
20210924161521 63 206 6.0 16.0 0.00 0.11 0.01 56 1012.7
20210924161320 63 171 6.0 14.0 0.00 0.11 0.01 56 1012.7
20210924161120 63 173 6.0 14.0 0.00 0.11 0.01 56 1012.7
20210924160920 63 159 5.0 17.0 0.00 0.11 0.01 58 1012.7
20210924160718 62 199 5.0 19.0 0.00 0.11 0.01 58 1012.8
20210924160518 62 207 4.0 22.0 0.00 0.11 0.01 59 1012.8
20210924160318 62 199 6.0 22.0 0.00 0.11 0.01 59 1012.8
20210924160117 62 218 9.0 22.0 0.00 0.11 0.01 58 1012.8
20210924155917 62 217 10.0 22.0 0.00 0.11 0.01 58 1012.9
20210924155717 62 198 7.0 22.0 0.00 0.11 0.01 60 1012.9
20210924155516 61 203 7.0 18.0 0.00 0.11 0.01 59 1012.9
20210924155316 61 171 7.0 17.0 0.00 0.11 0.01 59 1012.9
20210924155116 61 199 7.0 19.0 0.00 0.11 0.01 60 1012.9
20210924154916 61 226 9.0 19.0 0.00 0.11 0.01 59 1012.9
20210924154715 61 234 7.0 19.0 0.00 0.11 0.01 59 1013.0
20210924154515 61 248 7.0 19.0 0.00 0.11 0.01 58 1013.0
20210924154314 61 225 7.0 18.0 0.00 0.11 0.01 60 1013.0
20210924154114 61 208 7.0 19.0 0.00 0.11 0.01 61 1013.0
20210924153914 61 203 6.0 19.0 0.00 0.11 0.01 62 1013.0
20210924153713 61 173 6.0 19.0 0.00 0.11 0.01 61 1013.0
20210924153513 60 171 7.0 19.0 0.00 0.11 0.01 62 1013.0
20210924153313 60 201 6.0 19.0 0.00 0.11 0.01 63 1013.0
20210924153112 60 237 6.0 13.0 0.00 0.11 0.01 64 1012.9
20210924152912 60 158 5.0 18.0 0.00 0.11 0.01 64 1012.9
20210924152712 60 229 7.0 18.0 0.00 0.11 0.01 64 1013.0
20210924152511 60 204 7.0 18.0 0.00 0.11 0.01 65 1013.1
20210924152311 60 211 7.0 18.0 0.00 0.11 0.01 66 1013.0
20210924152111 59 205 7.0 18.0 0.00 0.11 0.01 66 1013.1
20210924151910 59 194 7.0 18.0 0.00 0.11 0.01 66 1013.0
20210924151710 59 173 6.0 21.0 0.00 0.11 0.01 66 1013.0
20210924151510 59 168 6.0 21.0 0.00 0.11 0.01 67 1012.9
20210924151109 59 213 7.0 21.0 0.00 0.11 0.01 68 1012.9
20210924150909 59 217 6.0 19.0 0.00 0.11 0.01 68 1013.0
20210924150708 58 192 6.0 17.0 0.00 0.11 0.01 70 1012.9
20210924150507 58 205 6.0 17.0 0.00 0.11 0.01 69 1013.0
20210924150107 58 224 5.0 17.0 0.00 0.11 0.01 71 1012.9
20210924145906 58 219 6.0 17.0 0.00 0.11 0.01 71 1012.9
20210924145706 58 212 7.0 17.0 0.00 0.11 0.01 71 1012.9
20210924145306 57 191 3.0 9.0 0.00 0.11 0.01 73 1012.7
20210924145105 57 187 2.0 12.0 0.00 0.11 0.01 74 1012.8
20210924144905 57 219 4.0 12.0 0.00 0.11 0.01 75 1012.8
20210924144704 56 215 5.0 12.0 0.00 0.11 0.01 74 1012.9
20210924144504 56 214 5.0 16.0 0.00 0.11 0.01 74 1012.9
20210924144304 56 199 4.0 16.0 0.00 0.11 0.01 76 1012.8
20210924144103 56 184 5.0 16.0 0.00 0.11 0.01 76 1012.8
20210924143903 56 201 5.0 16.0 0.00 0.11 0.01 76 1012.9
20210924143702 56 184 6.0 13.0 0.00 0.11 0.01 76 1012.8
20210924143502 56 186 6.0 13.0 0.00 0.11 0.01 76 1012.8
20210924143302 56 185 5.0 13.0 0.00 0.11 0.01 76 1012.8
20210924143102 56 202 5.0 13.0 0.00 0.11 0.01 76 1012.8
20210924142901 56 211 4.0 13.0 0.00 0.11 0.01 76 1012.8
20210924142701 56 221 4.0 13.0 0.00 0.11 0.01 78 1012.8
20210924142501 56 219 5.0 14.0 0.00 0.11 0.01 78 1012.8
20210924142300 55 227 4.0 15.0 0.00 0.11 0.01 78 1012.8
20210924142100 55 222 4.0 15.0 0.00 0.11 0.01 78 1012.9
20210924141900 55 194 6.0 19.0 0.00 0.11 0.01 78 1012.8
20210924141659 55 190 6.0 19.0 0.00 0.11 0.01 78 1012.8
20210924141459 55 209 5.0 19.0 0.00 0.11 0.01 78 1012.7
20210924141259 55 238 6.0 19.0 0.00 0.11 0.01 78 1012.7
20210924141058 55 229 5.0 19.0 0.00 0.11 0.01 78 1012.8
20210924140858 55 196 4.0 17.0 0.00 0.11 0.01 79 1012.8
20210924140657 55 222 5.0 17.0 0.00 0.11 0.01 79 1012.8
20210924140456 55 204 4.0 17.0 0.00 0.11 0.01 79 1012.8
20210924140256 54 212 7.0 17.0 0.00 0.11 0.01 79 1012.8
20210924140056 54 197 7.0 17.0 0.00 0.11 0.01 79 1012.8
20210924135855 54 217 5.0 14.0 0.00 0.11 0.01 80 1012.8
20210924135655 54 222 4.0 15.0 0.00 0.11 0.01 80 1012.7
20210924135455 54 185 5.0 18.0 0.00 0.11 0.01 80 1012.8
20210924135254 54 189 6.0 18.0 0.00 0.11 0.01 79 1012.7
20210924135054 54 207 5.0 18.0 0.00 0.11 0.01 79 1012.7
20210924134854 54 199 7.0 18.0 0.00 0.11 0.01 80 1012.7
20210924134653 54 197 6.0 18.0 0.00 0.11 0.01 80 1012.6
20210924134453 54 201 5.0 16.0 0.00 0.11 0.01 81 1012.5
20210924134253 54 206 6.0 16.0 0.00 0.11 0.01 80 1012.5
20210924134052 54 210 7.0 16.0 0.00 0.11 0.01 80 1012.4
20210924133852 54 193 6.0 16.0 0.00 0.11 0.01 81 1012.3
20210924133652 54 184 4.0 16.0 0.00 0.11 0.01 81 1012.3
20210924133451 54 200 6.0 16.0 0.00 0.11 0.01 81 1012.3
20210924133251 54 212 4.0 16.0 0.00 0.11 0.01 82 1012.2
20210924133051 54 199 5.0 16.0 0.00 0.11 0.01 82 1012.2
20210924132850 53 238 4.0 16.0 0.00 0.11 0.01 82 1012.2
20210924132650 53 197 5.0 15.0 0.00 0.11 0.01 82 1012.2
20210924132450 53 171 3.0 15.0 0.00 0.11 0.01 83 1012.2
20210924132249 53 175 4.0 16.0 0.00 0.11 0.01 83 1012.3
20210924132049 53 214 6.0 16.0 0.00 0.11 0.01 83 1012.3
20210924131849 53 208 6.0 16.0 0.00 0.11 0.01 83 1012.3
20210924131448 53 229 6.0 16.0 0.00 0.11 0.01 83 1012.2
20210924131248 53 209 6.0 16.0 0.00 0.11 0.01 84 1012.2
20210924131047 53 187 5.0 16.0 0.00 0.11 0.01 84 1012.1
20210924130847 53 195 7.0 16.0 0.00 0.11 0.01 84 1012.2
20210924130646 53 211 6.0 16.0 0.00 0.11 0.01 84 1012.1
20210924130446 53 217 4.0 16.0 0.00 0.11 0.01 85 1012.1
20210924130246 53 206 5.0 14.0 0.00 0.11 0.01 85 1012.0
20210924130045 53 195 4.0 14.0 0.00 0.11 0.01 84 1011.9
20210924125845 53 205 4.0 19.0 0.00 0.12 0.01 85 1012.0
20210924125644 53 197 4.0 19.0 0.00 0.12 0.01 85 1012.0
20210924125444 52 214 5.0 19.0 0.00 0.12 0.01 85 1012.0
20210924125244 52 201 6.0 19.0 0.00 0.12 0.01 85 1012.0
20210924125044 52 194 5.0 19.0 0.00 0.12 0.01 85 1012.0
20210924124843 52 232 2.0 18.0 0.00 0.12 0.01 85 1011.9
20210924124643 52 237 4.0 18.0 0.00 0.12 0.01 85 1012.0
20210924124442 52 240 5.0 18.0 0.00 0.12 0.01 85 1012.0
20210924124242 52 223 6.0 18.0 0.00 0.12 0.01 85 1011.8
20210924124042 52 223 5.0 11.0 0.00 0.12 0.01 85 1011.7
20210924123842 52 204 5.0 11.0 0.00 0.12 0.01 84 1011.7
20210924123441 53 222 3.0 12.0 0.00 0.12 0.01 84 1011.7
20210924123241 53 242 4.0 12.0 0.00 0.12 0.01 84 1011.6
20210924123040 53 231 5.0 12.0 0.00 0.12 0.01 83 1011.7
20210924122840 53 229 4.0 12.0 0.00 0.12 0.01 83 1011.7
20210924122639 54 220 2.0 10.0 0.00 0.12 0.01 82 1011.7
20210924122439 54 189 3.0 10.0 0.00 0.12 0.01 82 1011.6
20210924122239 54 195 3.0 10.0 0.00 0.12 0.01 82 1011.5
20210924122039 54 182 4.0 10.0 0.00 0.12 0.01 83 1011.5
20210924121838 54 158 5.0 10.0 0.00 0.12 0.01 83 1011.5
20210924121638 53 188 5.0 10.0 0.00 0.12 0.01 83 1011.5
20210924121438 53 200 4.0 10.0 0.00 0.12 0.01 83 1011.5
20210924121237 53 200 3.0 11.0 0.00 0.12 0.01 84 1011.4
20210924121037 53 181 3.0 11.0 0.00 0.12 0.01 84 1011.5
20210924120837 53 198 3.0 11.0 0.00 0.12 0.01 85 1011.4
20210924120636 53 218 4.0 11.0 0.00 0.12 0.01 84 1011.4
20210924120436 53 195 3.0 11.0 0.00 0.12 0.01 85 1011.4
20210924120235 52 200 3.0 11.0 0.00 0.12 0.01 86 1011.4
20210924120035 52 236 5.0 11.0 0.00 0.12 0.01 86 1011.4
20210924115835 52 238 4.0 11.0 0.00 0.12 0.01 86 1011.4
20210924115634 52 212 4.0 11.0 0.00 0.12 0.01 86 1011.3
20210924115434 52 219 4.0 10.0 0.00 0.12 0.01 86 1011.3
20210924115234 52 216 4.0 10.0 0.00 0.12 0.01 86 1011.4
20210924115034 52 225 4.0 12.0 0.00 0.12 0.01 86 1011.4
20210924114833 52 239 4.0 12.0 0.00 0.12 0.01 87 1011.4
20210924114633 52 242 3.0 12.0 0.00 0.12 0.01 87 1011.4
20210924114432 52 241 5.0 12.0 0.00 0.12 0.01 87 1011.4
20210924114232 52 252 4.0 15.0 0.00 0.12 0.01 87 1011.4
20210924114032 52 230 4.0 15.0 0.00 0.12 0.01 87 1011.4
20210924113831 52 218 4.0 15.0 0.00 0.12 0.01 88 1011.4
20210924113631 52 223 5.0 15.0 0.00 0.12 0.01 88 1011.3
20210924113431 52 214 4.0 12.0 0.00 0.12 0.01 88 1011.3
20210924113230 52 200 3.0 12.0 0.00 0.12 0.01 88 1011.3
20210924113030 52 199 3.0 12.0 0.00 0.12 0.01 88 1011.3
20210924112629 52 226 3.0 12.0 0.00 0.12 0.01 88 1011.2
20210924112429 52 229 3.0 9.0 0.00 0.12 0.01 88 1011.3
20210924112229 52 220 3.0 9.0 0.00 0.12 0.01 88 1011.2
20210924112028 52 193 2.0 11.0 0.00 0.12 0.01 88 1011.2
20210924111828 52 185 3.0 11.0 0.00 0.12 0.01 88 1011.1
20210924111628 52 207 3.0 11.0 0.00 0.12 0.01 87 1011.0
20210924111427 52 208 4.0 11.0 0.00 0.12 0.01 88 1011.1
20210924111227 52 220 4.0 11.0 0.00 0.12 0.01 87 1011.1
20210924110826 52 193 4.0 13.0 0.00 0.12 0.01 87 1011.0
20210924110626 52 198 4.0 13.0 0.00 0.12 0.01 87 1011.0
20210924110426 52 237 5.0 13.0 0.00 0.12 0.01 87 1011.0
20210924110225 52 231 5.0 13.0 0.00 0.12 0.01 87 1011.0
20210924110025 52 215 4.0 13.0 0.00 0.12 0.01 87 1010.9
20210924105825 52 208 2.0 13.0 0.00 0.12 0.01 87 1010.8
20210924105624 52 212 3.0 13.0 0.00 0.12 0.01 87 1010.9
20210924105424 52 244 4.0 13.0 0.00 0.12 0.01 87 1010.8
20210924105224 52 223 5.0 16.0 0.00 0.12 0.01 87 1010.8
20210924105023 52 219 4.0 16.0 0.00 0.12 0.01 87 1010.8
20210924104823 52 207 3.0 16.0 0.00 0.12 0.01 87 1010.7
20210924104623 52 188 5.0 16.0 0.00 0.12 0.01 87 1010.7
20210924104422 52 217 6.0 16.0 0.00 0.12 0.01 87 1010.7
20210924104222 52 221 4.0 13.0 0.00 0.12 0.01 87 1010.8
20210924104022 52 211 4.0 13.0 0.00 0.12 0.01 87 1010.7
20210924103821 52 233 5.0 13.0 0.00 0.12 0.01 87 1010.7
20210924103621 52 234 4.0 13.0 0.00 0.12 0.01 87 1010.6
20210924103421 52 229 4.0 13.0 0.00 0.12 0.01 87 1010.6
20210924103220 52 212 2.0 13.0 0.00 0.12 0.01 87 1010.6
20210924103020 52 186 5.0 13.0 0.00 0.12 0.01 87 1010.6
20210924102820 52 228 5.0 13.0 0.00 0.12 0.01 87 1010.5
20210924102619 52 225 3.0 13.0 0.00 0.12 0.01 87 1010.6
20210924102419 52 216 4.0 13.0 0.00 0.12 0.01 87 1010.5
20210924102219 51 223 5.0 13.0 0.00 0.12 0.01 87 1010.5
20210924102018 52 213 3.0 11.0 0.00 0.12 0.01 87 1010.5
20210924101818 52 218 3.0 11.0 0.00 0.12 0.01 87 1010.4
20210924101618 51 225 3.0 10.0 0.00 0.12 0.01 87 1010.4
20210924101417 52 206 2.0 14.0 0.00 0.12 0.01 87 1010.3
20210924101217 52 209 3.0 14.0 0.00 0.12 0.01 87 1010.3
20210924101017 51 246 3.0 14.0 0.00 0.12 0.01 88 1010.3
20210924100816 51 229 3.0 14.0 0.00 0.12 0.01 88 1010.3
20210924100615 51 231 1.0 8.0 0.00 0.12 0.01 88 1010.2
20210924100415 51 215 2.0 8.0 0.00 0.12 0.01 88 1010.1
20210924100215 51 206 2.0 8.0 0.00 0.12 0.01 88 1010.1
20210924100014 51 221 3.0 8.0 0.00 0.12 0.01 88 1010.1
20210924095814 51 209 2.0 13.0 0.00 0.12 0.01 89 1010.0
20210924095614 51 192 2.0 13.0 0.00 0.12 0.01 89 1010.1
20210924095413 51 164 1.0 13.0 0.00 0.12 0.01 89 1010.1
20210924095213 51 206 2.0 13.0 0.00 0.12 0.01 89 1010.1
20210924095013 51 220 3.0 13.0 0.00 0.12 0.01 89 1010.2
20210924094812 51 226 2.0 7.0 0.00 0.12 0.01 89 1010.1
20210924094612 51 224 2.0 7.0 0.00 0.12 0.01 89 1010.1
20210924094412 51 220 2.0 9.0 0.00 0.12 0.01 90 1010.1
20210924094211 51 216 4.0 9.0 0.00 0.12 0.01 90 1010.2
20210924094011 51 220 3.0 9.0 0.00 0.12 0.01 90 1010.2
20210924093811 51 196 2.0 9.0 0.00 0.12 0.01 90 1010.2
20210924093610 51 190 3.0 9.0 0.00 0.12 0.01 90 1010.2
20210924093410 51 209 2.0 10.0 0.00 0.12 0.01 90 1010.1
20210924093210 51 228 3.0 10.0 0.00 0.12 0.01 90 1010.1
20210924093009 51 213 2.0 10.0 0.00 0.12 0.01 90 1010.1
20210924092809 51 206 3.0 10.0 0.00 0.12 0.01 90 1010.1
20210924084201 51 237 3.0 8.0 0.00 0.12 0.01 89 1009.4
20210924084001 51 218 3.0 9.0 0.00 0.12 0.01 89 1009.5
20210924083801 51 214 3.0 12.0 0.00 0.12 0.01 89 1009.4
20210924083559 51 228 4.0 12.0 0.00 0.12 0.01 89 1009.5
20210924083359 51 221 4.0 12.0 0.00 0.12 0.01 89 1009.5
20210924083159 51 209 5.0 12.0 0.00 0.12 0.01 89 1009.4
20210924082958 51 211 3.0 12.0 0.00 0.12 0.01 90 1009.5
20210924082758 51 228 3.0 9.0 0.00 0.12 0.01 90 1009.4
20210924082558 51 226 3.0 10.0 0.00 0.12 0.01 90 1009.4
20210924082357 51 210 3.0 10.0 0.00 0.12 0.01 90 1009.4
20210924082157 51 190 2.0 10.0 0.00 0.12 0.01 90 1009.3
20210924081957 51 202 3.0 10.0 0.00 0.12 0.01 90 1009.3
20210924081756 51 199 2.0 11.0 0.00 0.12 0.01 90 1009.3
20210924081556 51 210 3.0 11.0 0.00 0.12 0.01 90 1009.3
20210924081356 51 200 3.0 11.0 0.00 0.12 0.01 90 1009.3
20210924081155 51 210 4.0 11.0 0.00 0.12 0.01 89 1009.3
20210924080955 51 223 4.0 11.0 0.00 0.12 0.01 89 1009.3
20210924080755 51 230 3.0 10.0 0.00 0.12 0.01 89 1009.3
20210924080554 51 212 3.0 10.0 0.00 0.12 0.01 89 1009.3
20210924080353 51 190 4.0 10.0 0.00 0.12 0.01 89 1009.3
20210924080153 51 177 3.0 11.0 0.00 0.12 0.01 89 1009.2
20210924075953 51 186 2.0 18.0 0.00 0.13 0.01 89 1009.3
20210924075752 51 192 4.0 18.0 0.00 0.13 0.01 89 1009.2
20210924075552 51 213 5.0 18.0 0.00 0.13 0.01 89 1009.2
20210924075352 52 194 5.0 18.0 0.00 0.13 0.01 89 1009.1
20210924075151 52 200 4.0 18.0 0.00 0.13 0.01 89 1009.1
20210924074951 52 217 4.0 11.0 0.00 0.13 0.01 89 1009.1
20210924074751 52 220 3.0 11.0 0.00 0.13 0.01 89 1009.1
20210924074549 52 197 3.0 11.0 0.00 0.13 0.01 89 1009.0
20210924074349 52 189 3.0 11.0 0.00 0.13 0.01 89 1009.0
20210924073949 52 225 2.0 10.0 0.00 0.13 0.01 89 1009.1
20210924073748 52 229 2.0 10.0 0.00 0.13 0.01 89 1009.1
20210924073548 52 208 3.0 10.0 0.00 0.13 0.01 89 1009.1
20210924073348 52 187 1.0 10.0 0.00 0.13 0.01 89 1009.3
20210924073147 52 225 2.0 10.0 0.00 0.13 0.01 89 1009.1
20210924072947 52 217 3.0 10.0 0.00 0.13 0.01 89 1009.2
20210924072747 52 192 2.0 10.0 0.00 0.13 0.01 89 1009.1
20210924072546 53 182 2.0 10.0 0.00 0.13 0.01 90 1009.2
20210924072346 53 203 2.0 10.0 0.00 0.13 0.01 90 1009.1
20210924072146 53 239 2.0 10.0 0.00 0.13 0.01 90 1009.2
20210924071945 53 214 4.0 10.0 0.00 0.13 0.01 90 1009.2
20210924071745 53 182 3.0 9.0 0.00 0.13 0.01 90 1009.1
20210924071544 53 197 3.0 7.0 0.00 0.13 0.01 90 1009.1
20210924071344 53 191 2.0 6.0 0.00 0.13 0.01 90 1009.1
20210924071144 53 245 2.0 5.0 0.00 0.13 0.01 91 1009.1
20210924070944 53 240 2.0 5.0 0.00 0.13 0.01 91 1009.1
20210924070743 53 170 1.0 5.0 0.00 0.13 0.01 91 1009.1
20210924070542 53 160 1.0 5.0 0.00 0.13 0.01 91 1009.0
20210924070342 53 189 1.0 5.0 0.00 0.13 0.01 91 1009.0
20210924070141 53 205 1.0 6.0 0.00 0.13 0.01 90 1009.0
20210924065941 53 212 2.0 6.0 0.00 0.21 0.01 90 1009.0
20210924065741 53 212 1.0 6.0 0.00 0.21 0.01 90 1009.0
20210924065540 53 213 2.0 6.0 0.00 0.21 0.01 90 1009.0
20210924065340 53 216 2.0 6.0 0.00 0.21 0.01 90 1009.0
20210924065140 53 222 2.0 5.0 0.00 0.21 0.01 90 1008.9
20210924064939 53 195 1.0 5.0 0.00 0.21 0.01 90 1008.8
20210924064739 53 169 1.0 5.0 0.00 0.21 0.01 90 1008.8
20210924064539 53 191 2.0 5.0 0.00 0.21 0.01 90 1008.8
20210924064338 53 191 2.0 5.0 0.00 0.21 0.01 90 1008.8
20210924064138 53 198 2.0 5.0 0.00 0.21 0.01 90 1008.8
20210924063938 53 201 1.0 5.0 0.00 0.21 0.01 90 1008.8
20210924063737 53 225 2.0 5.0 0.00 0.21 0.01 90 1008.8
20210924063537 53 209 1.0 7.0 0.00 0.21 0.01 90 1008.8
20210924063337 53 205 1.0 7.0 0.00 0.21 0.01 90 1008.8
20210924063136 53 201 2.0 7.0 0.00 0.21 0.01 90 1008.8
20210924062936 53 205 2.0 7.0 0.00 0.21 0.01 90 1008.8
20210924062736 53 220 1.0 9.0 0.00 0.21 0.01 90 1008.8
20210924062535 53 214 2.0 9.0 0.00 0.21 0.01 90 1008.9
20210924062335 53 192 2.0 9.0 0.00 0.21 0.01 90 1008.8
20210924062135 53 205 2.0 9.0 0.00 0.21 0.01 90 1008.8
20210924061934 53 213 3.0 9.0 0.00 0.21 0.01 90 1008.8
20210924061734 53 203 2.0 8.0 0.00 0.21 0.01 90 1008.8
20210924061534 53 202 2.0 6.0 0.00 0.21 0.01 90 1008.8
20210924061333 53 203 2.0 7.0 0.00 0.21 0.01 90 1008.8
20210924061133 53 197 2.0 7.0 0.00 0.21 0.01 90 1008.9
20210924060933 53 210 3.0 7.0 0.00 0.21 0.01 90 1008.8
20210924060733 53 208 3.0 7.0 0.00 0.21 0.01 90 1008.8
20210924060532 54 218 1.0 7.0 0.00 0.21 0.01 90 1008.8
20210924060332 54 247 1.0 6.0 0.00 0.21 0.01 90 1008.8
20210924060131 54 225 3.0 6.0 0.00 0.21 0.01 90 1008.8
20210924055931 54 195 3.0 8.0 0.00 0.24 0.01 90 1008.8
20210924055731 54 190 2.0 8.0 0.00 0.24 0.01 90 1008.8
20210924055530 54 199 3.0 8.0 0.00 0.24 0.01 90 1008.8
20210924055329 54 222 2.0 8.0 0.00 0.24 0.01 90 1008.7
20210924055129 54 214 2.0 8.0 0.00 0.24 0.01 90 1008.8
20210924054929 54 221 3.0 8.0 0.00 0.24 0.01 90 1008.7
20210924054728 54 216 2.0 8.0 0.00 0.24 0.01 90 1008.7
20210924054528 54 200 2.0 9.0 0.00 0.24 0.01 90 1008.7
20210924054328 54 226 2.0 9.0 0.00 0.24 0.01 90 1008.7
20210924054127 54 233 2.0 9.0 0.00 0.24 0.01 90 1008.7
20210924053927 54 215 4.0 9.0 0.00 0.24 0.01 90 1008.7
20210924053727 54 220 3.0 9.0 0.00 0.24 0.01 91 1008.7
20210924053526 54 203 2.0 7.0 0.01 0.24 0.01 91 1008.7
20210924053326 54 199 2.0 9.0 0.01 0.24 0.01 91 1008.7
20210924053126 54 205 2.0 9.0 0.01 0.24 0.01 92 1008.6
20210924052925 54 211 3.0 9.0 0.01 0.24 0.01 92 1008.7
20210924052725 54 212 3.0 9.0 0.01 0.24 0.01 92 1008.7
20210924052524 54 219 3.0 9.0 0.01 0.24 0.01 92 1008.7
20210924052324 54 217 4.0 9.0 0.01 0.24 0.01 92 1008.6
20210924052123 54 197 2.0 11.0 0.01 0.24 0.01 92 1008.6
20210924051923 54 174 3.0 11.0 0.01 0.24 0.01 92 1008.6
20210924051723 54 185 4.0 11.0 0.01 0.24 0.01 92 1008.7
20210924051522 54 211 5.0 11.0 0.01 0.24 0.01 92 1008.7
20210924051321 54 223 4.0 11.0 0.01 0.24 0.01 93 1008.6
20210924051121 54 223 2.0 5.0 0.01 0.24 0.01 93 1008.7
20210924050921 54 207 2.0 6.0 0.01 0.24 0.01 93 1008.7
20210924050720 54 199 1.0 6.0 0.01 0.24 0.01 93 1008.7
20210924050520 54 208 1.0 6.0 0.01 0.24 0.01 93 1008.8
20210924050319 54 208 2.0 9.0 0.01 0.24 0.01 93 1008.8
20210924050119 54 232 2.0 9.0 0.01 0.24 0.01 93 1008.8
20210924045919 54 211 3.0 9.0 0.01 0.28 0.01 93 1008.7
20210924045718 54 210 3.0 9.0 0.01 0.28 0.01 93 1008.7
20210924045518 54 213 4.0 9.0 0.02 0.28 0.01 93 1008.7
20210924045318 54 202 3.0 8.0 0.02 0.28 0.01 93 1008.7
20210924045117 54 198 3.0 8.0 0.02 0.28 0.01 93 1008.7
20210924044917 54 214 2.0 13.0 0.02 0.28 0.01 93 1008.7
20210924044717 54 220 3.0 13.0 0.02 0.28 0.01 93 1008.7
20210924044516 54 207 4.0 13.0 0.02 0.28 0.01 93 1008.7
20210924044315 54 197 5.0 13.0 0.02 0.28 0.01 93 1008.7
20210924044115 54 194 3.0 12.0 0.02 0.28 0.01 93 1008.7
20210924043915 54 217 2.0 12.0 0.03 0.28 0.01 93 1008.7
20210924043714 54 219 3.0 13.0 0.02 0.27 0.00 93 1008.7
20210924043514 54 202 4.0 13.0 0.02 0.27 0.00 92 1008.7
20210924043314 54 209 4.0 13.0 0.02 0.27 0.00 92 1008.7
20210924043113 54 203 4.0 13.0 0.03 0.27 0.00 92 1008.7
20210924042913 54 202 5.0 13.0 0.03 0.27 0.00 92 1008.7
20210924042713 54 213 3.0 9.0 0.03 0.27 0.00 92 1008.7
20210924042512 54 204 4.0 11.0 0.04 0.27 0.00 92 1008.7
20210924042312 54 209 3.0 11.0 0.04 0.27 0.00 92 1008.7
20210924042112 54 198 4.0 11.0 0.04 0.27 0.00 92 1008.8
20210924041911 54 219 4.0 11.0 0.04 0.27 0.00 92 1008.7
20210924041711 54 224 3.0 10.0 0.04 0.27 0.00 92 1008.7
20210924041511 54 215 5.0 12.0 0.04 0.27 0.00 92 1008.7
20210924041310 54 204 5.0 12.0 0.04 0.27 0.00 92 1008.7
20210924041110 54 205 4.0 12.0 0.04 0.27 0.00 92 1008.7
20210924040910 54 208 5.0 12.0 0.04 0.27 0.00 92 1008.7
20210924040710 54 211 4.0 11.0 0.04 0.27 0.00 92 1008.8
20210924040509 54 216 4.0 11.0 0.05 0.27 0.00 92 1008.8
20210924040309 54 222 5.0 11.0 0.05 0.27 0.00 92 1008.8
20210924040108 54 223 5.0 11.0 0.05 0.27 0.00 92 1008.8
20210924035908 54 219 5.0 12.0 0.05 0.28 0.27 92 1008.7
20210924035708 54 199 4.0 12.0 0.04 0.27 0.26 92 1008.8
20210924035507 54 203 5.0 17.0 0.04 0.27 0.26 92 1008.8
20210924035307 54 203 5.0 17.0 0.04 0.27 0.26 92 1008.8
20210924035107 54 214 4.0 17.0 0.04 0.27 0.26 92 1008.9
20210924034906 54 224 5.0 17.0 0.04 0.27 0.26 92 1008.8
20210924034706 54 224 4.0 17.0 0.04 0.27 0.26 92 1008.8
20210924034506 54 216 5.0 11.0 0.04 0.27 0.26 92 1008.8
20210924034305 54 215 5.0 11.0 0.04 0.27 0.26 92 1008.8
20210924034105 54 216 5.0 11.0 0.04 0.27 0.26 92 1008.8
20210924033905 54 209 4.0 11.0 0.03 0.26 0.25 92 1008.8
20210924033704 54 209 5.0 14.0 0.03 0.26 0.25 92 1008.9
20210924033504 54 217 5.0 14.0 0.03 0.26 0.25 92 1008.8
20210924033304 54 209 5.0 14.0 0.02 0.25 0.24 91 1008.8
20210924033103 54 214 6.0 14.0 0.02 0.25 0.24 91 1008.8
20210924032903 54 204 5.0 13.0 0.02 0.25 0.24 91 1008.8
20210924032703 54 211 5.0 13.0 0.01 0.24 0.23 91 1008.7
20210924032502 54 213 6.0 13.0 0.01 0.24 0.23 91 1008.8
20210924032305 54 215 5.0 13.0 0.01 0.24 0.23 90 1008.7
20210924032102 54 221 4.0 12.0 0.01 0.24 0.23 90 1008.7
20210924031901 54 223 5.0 12.0 0.01 0.24 0.23 90 1008.8
20210924031702 54 218 5.0 12.0 0.01 0.24 0.23 90 1008.8
20210924031501 54 210 6.0 10.0 0.01 0.24 0.23 90 1008.8
20210924031301 54 212 5.0 10.0 0.01 0.24 0.23 90 1008.8
20210924031100 54 215 5.0 10.0 0.01 0.24 0.23 89 1008.8
20210924030900 54 217 5.0 10.0 0.01 0.24 0.23 89 1008.8
20210924030700 54 214 4.0 10.0 0.00 0.23 0.22 89 1008.9
20210924030459 54 213 3.0 9.0 0.00 0.23 0.22 89 1008.9
20210924030259 54 218 4.0 9.0 0.00 0.23 0.22 89 1008.8
20210924030058 54 219 3.0 9.0 0.00 0.23 0.22 88 1008.9
20210924025858 54 207 2.0 9.0 0.00 0.35 0.22 88 1008.8
20210924025658 54 220 3.0 7.0 0.00 0.35 0.22 88 1008.8
20210924025257 54 235 1.0 6.0 0.00 0.35 0.22 88 1008.9
20210924025057 54 231 2.0 6.0 0.00 0.35 0.22 88 1008.8
20210924024856 54 220 2.0 6.0 0.00 0.35 0.22 88 1008.9
20210924024656 54 223 2.0 6.0 0.00 0.35 0.22 88 1008.9
20210924024456 54 229 1.0 3.0 0.00 0.35 0.22 88 1008.9
20210924024255 54 227 1.0 3.0 0.00 0.35 0.22 88 1008.9
20210924023855 54 230 1.0 6.0 0.00 0.35 0.22 89 1008.9
20210924023654 54 224 1.0 6.0 0.00 0.35 0.22 89 1008.9
20210924023454 54 238 2.0 8.0 0.00 0.35 0.22 89 1008.9
20210924023254 54 241 2.0 8.0 0.00 0.35 0.22 89 1008.9
20210924023053 54 226 1.0 8.0 0.00 0.35 0.22 89 1009.0
20210924022853 53 230 2.0 8.0 0.00 0.35 0.22 89 1009.0
20210924022653 53 233 2.0 8.0 0.00 0.35 0.22 89 1009.0
20210924022452 53 226 1.0 4.0 0.00 0.35 0.22 90 1009.0
20210924022251 53 224 1.0 4.0 0.00 0.35 0.22 90 1009.0
20210924022051 53 231 1.0 4.0 0.00 0.35 0.22 90 1009.0
20210924021851 53 232 1.0 4.0 0.01 0.35 0.22 90 1009.0
20210924021650 53 229 1.0 4.0 0.01 0.35 0.22 90 1009.0
20210924021450 53 220 1.0 4.0 0.02 0.35 0.22 90 1009.1
20210924021250 53 156 0.0 4.0 0.02 0.35 0.22 90 1009.1
20210924021049 53 244 1.0 4.0 0.03 0.35 0.22 90 1009.1
20210924020849 53 242 1.0 5.0 0.04 0.35 0.22 90 1009.1
20210924020649 53 270 0.0 6.0 0.04 0.35 0.22 90 1009.1
20210924020448 53 251 0.0 6.0 0.04 0.35 0.22 90 1009.1
20210924020248 53 231 1.0 6.0 0.04 0.35 0.22 90 1009.2
20210924015847 53 69 1.0 6.0 0.04 0.47 0.22 90 1009.2
20210924015647 53 11 0.0 3.0 0.04 0.47 0.22 90 1009.2
20210924015447 53 272 1.0 4.0 0.04 0.47 0.22 90 1009.2
20210924015246 53 228 1.0 7.0 0.04 0.47 0.22 90 1009.2
20210924015046 53 233 1.0 7.0 0.04 0.47 0.22 90 1009.3
20210924014846 53 238 1.0 7.0 0.04 0.47 0.22 90 1009.3
20210924014645 53 231 2.0 7.0 0.04 0.47 0.22 90 1009.4
20210924014445 53 224 3.0 7.0 0.04 0.47 0.22 90 1009.4
20210924014245 53 221 2.0 5.0 0.04 0.47 0.22 90 1009.5
20210924014044 53 239 2.0 5.0 0.04 0.47 0.22 90 1009.4
20210924013844 53 253 2.0 5.0 0.04 0.47 0.22 90 1009.5
20210924013644 53 241 1.0 6.0 0.04 0.47 0.22 90 1009.5
20210924013443 53 235 1.0 6.0 0.04 0.47 0.22 90 1009.5
20210924013043 53 221 2.0 7.0 0.04 0.47 0.22 90 1009.6
20210924012842 53 222 2.0 7.0 0.04 0.47 0.22 90 1009.6
20210924012642 53 228 3.0 7.0 0.05 0.47 0.22 90 1009.7
20210924012442 53 223 2.0 8.0 0.05 0.47 0.22 90 1009.6
20210924012241 53 230 1.0 9.0 0.05 0.47 0.22 90 1009.6
20210924012041 53 216 3.0 9.0 0.05 0.47 0.22 90 1009.6
20210924011841 53 210 4.0 9.0 0.04 0.46 0.21 89 1009.6
20210924011640 54 212 4.0 9.0 0.04 0.46 0.21 89 1009.6
20210924011440 54 214 3.0 9.0 0.03 0.45 0.20 89 1009.7
20210924011240 54 208 3.0 9.0 0.03 0.45 0.20 89 1009.7
20210924011039 54 210 4.0 9.0 0.02 0.44 0.19 89 1009.7